Retour au catalogue

ONEWEB-0271

ActifCommunicationsPO
NORAD 48989·PAYLOAD·🇬🇧 United Kingdom

Lancé Jul 1, 2021 depuis Vostochny Cosmodrome

Loading…

Prochains Passages (prochaines 24 heures)

TLE

FraisSource: CelesTrak SupGP

Époque: Sep 14, 2026, 15:02 UTC

1 48989C 21060Y   26257.62689074  .00000393  00000+0  10298-2 0  2574
2 48989  87.9156 211.0129 0002151  73.3586 322.8474 13.16594623    14

Suivez ONEWEB-0271 en temps réel avec AllMySat

Download on the App Store